When you browse on this site, cookies collect data to enhance your experience and personalize the content and advertising you see.
Visit our Privacy Policy to learn more. By continuing to use the site, you agree to this use of cookies and data.

Météo par heure à Krasenki

Ce jour, 11 Juillet, Samedi

Heure Température Précipitation Vent Pression Humidité
00:00 +13°C° 0 mm 3 m/s 746 mmHg 85%
01:00 +13°C° 0 mm 3 m/s 746 mmHg 85%
02:00 +13°C° 0 mm 2 m/s 746 mmHg 84%
03:00 +14°C° 0 mm 2 m/s 746 mmHg 84%
04:00 +13°C° 0 mm 3 m/s 746 mmHg 84%
05:00 +13°C° 0 mm 3 m/s 746 mmHg 84%
06:00 +16°C° 0 mm 3 m/s 746 mmHg 80%
07:00 +18°C° 0 mm 4 m/s 746 mmHg 76%
08:00 +20°C° 0 mm 5 m/s 746 mmHg 72%
09:00 +21°C° 0 mm 5 m/s 746 mmHg 70%
10:00 +22°C° 0 mm 5 m/s 746 mmHg 68%
11:00 +23°C° 0 mm 5 m/s 746 mmHg 66%
12:00 +25°C° 0 mm 5 m/s 746 mmHg 67%
13:00 +25°C° 0 mm 5 m/s 746 mmHg 67%
14:00 +26°C° 0 mm 5 m/s 745 mmHg 67%
15:00 +25°C° 0 mm 5 m/s 745 mmHg 70%
16:00 +25°C° 0 mm 4 m/s 745 mmHg 73%
17:00 +25°C° 0 mm 4 m/s 745 mmHg 76%
18:00 +23°C° 0 mm 4 m/s 745 mmHg 81%
19:00 +21°C° 0 mm 3 m/s 745 mmHg 85%
20:00 +20°C° 0 mm 3 m/s 745 mmHg 90%
21:00 +19°C° 0 mm 3 m/s 744 mmHg 91%
22:00 +18°C° 0 mm 3 m/s 744 mmHg 92%
23:00 +18°C° 0 mm 3 m/s 744 mmHg 93%

Demain, 12 Juillet, Dimanche

Heure Température Précipitation Vent Pression Humidité
00:00 +17°C° 0 mm 3 m/s 744 mmHg 93%
01:00 +17°C° 0 mm 3 m/s 744 mmHg 93%
02:00 +16°C° 0 mm 3 m/s 744 mmHg 94%
03:00 +17°C° 0 mm 3 m/s 744 mmHg 92%
04:00 +17°C° 0 mm 2 m/s 743 mmHg 91%
05:00 +17°C° 0 mm 2 m/s 743 mmHg 90%
06:00 +19°C° 0 mm 2 m/s 743 mmHg 85%
07:00 +20°C° 0 mm 2 m/s 743 mmHg 80%
08:00 +23°C° 0 mm 2 m/s 743 mmHg 76%
09:00 +24°C° 0 mm 3 m/s 743 mmHg 73%
10:00 +25°C° 0 mm 3 m/s 743 mmHg 70%
11:00 +26°C° 0 mm 3 m/s 742 mmHg 67%
12:00 +26°C° 0 mm 3 m/s 742 mmHg 66%
13:00 +26°C° 0 mm 4 m/s 742 mmHg 66%
14:00 +27°C° 0 mm 4 m/s 742 mmHg 65%
15:00 +26°C° 0 mm 3 m/s 741 mmHg 67%
16:00 +26°C° 0 mm 3 m/s 741 mmHg 70%
17:00 +26°C° 0 mm 3 m/s 741 mmHg 72%
18:00 +24°C° 0 mm 2 m/s 740 mmHg 76%
19:00 +21°C° 0 mm 2 m/s 740 mmHg 80%
20:00 +21°C° 0 mm 1 m/s 740 mmHg 85%
21:00 +19°C° 0 mm 2 m/s 740 mmHg 86%
22:00 +18°C° 0 mm 2 m/s 740 mmHg 86%
23:00 +18°C° 0 mm 2 m/s 740 mmHg 87%

Après-demain, 13 Juillet, Lundi

Heure Température Précipitation Vent Pression Humidité
00:00 +17°C° 0 mm 2 m/s 739 mmHg 88%
01:00 +17°C° 0 mm 2 m/s 739 mmHg 89%
02:00 +16°C° 0 mm 1 m/s 739 mmHg 90%
03:00 +18°C° 0 mm 1 m/s 738 mmHg 89%
04:00 +18°C° 0 mm 1 m/s 738 mmHg 89%
05:00 +18°C° 0 mm 1 m/s 738 mmHg 88%
06:00 +20°C° 0 mm 1 m/s 738 mmHg 82%
07:00 +20°C° 0 mm 0 m/s 738 mmHg 77%
08:00 +22°C° 0 mm 0 m/s 738 mmHg 71%
09:00 +22°C° 0 mm 0 m/s 738 mmHg 68%
10:00 +25°C° 0 mm 1 m/s 738 mmHg 65%
11:00 +26°C° 0 mm 1 m/s 737 mmHg 62%
12:00 +26°C° 0.2 mm 1 m/s 737 mmHg 61%
13:00 +26°C° 0.2 mm 1 m/s 737 mmHg 61%
14:00 +27°C° 0.2 mm 1 m/s 737 mmHg 60%
15:00 +26°C° 0.9 mm 1 m/s 736 mmHg 67%
16:00 +25°C° 0.9 mm 2 m/s 736 mmHg 74%
17:00 +24°C° 0.9 mm 2 m/s 736 mmHg 81%
18:00 +22°C° 1.1 mm 3 m/s 736 mmHg 85%
19:00 +20°C° 1.1 mm 4 m/s 736 mmHg 89%
20:00 +19°C° 1.1 mm 5 m/s 736 mmHg 93%
21:00 +17°C° 1.4 mm 5 m/s 736 mmHg 94%
22:00 +17°C° 1.4 mm 5 m/s 735 mmHg 96%
23:00 +16°C° 1.4 mm 5 m/s 735 mmHg 97%

14 Juillet, Mardi

Heure Température Précipitation Vent Pression Humidité
00:00 +16°C° 1.6 mm 5 m/s 735 mmHg 97%
01:00 +16°C° 1.6 mm 5 m/s 735 mmHg 97%
02:00 +16°C° 1.6 mm 5 m/s 735 mmHg 97%
03:00 +16°C° 2.1 mm 5 m/s 735 mmHg 98%
04:00 +15°C° 2.1 mm 5 m/s 735 mmHg 98%
05:00 +15°C° 2.1 mm 5 m/s 734 mmHg 98%
06:00 +15°C° 1.9 mm 5 m/s 735 mmHg 97%
07:00 +15°C° 1.9 mm 5 m/s 735 mmHg 97%
08:00 +15°C° 1.9 mm 5 m/s 735 mmHg 97%
09:00 +15°C° 0.1 mm 5 m/s 735 mmHg 96%
10:00 +15°C° 0.1 mm 5 m/s 735 mmHg 95%
11:00 +15°C° 0.1 mm 5 m/s 736 mmHg 94%
12:00 +16°C° 0 mm 6 m/s 736 mmHg 91%
13:00 +17°C° 0 mm 6 m/s 736 mmHg 88%
14:00 +17°C° 0 mm 6 m/s 736 mmHg 85%
15:00 +17°C° 0 mm 6 m/s 736 mmHg 85%
16:00 +17°C° 0 mm 5 m/s 736 mmHg 85%
17:00 +17°C° 0 mm 5 m/s 736 mmHg 85%
18:00 +17°C° 0 mm 5 m/s 736 mmHg 86%
19:00 +17°C° 0 mm 4 m/s 736 mmHg 88%
20:00 +17°C° 0 mm 4 m/s 736 mmHg 89%
21:00 +15°C° 0 mm 4 m/s 736 mmHg 88%
22:00 +15°C° 0 mm 4 m/s 736 mmHg 86%
23:00 +15°C° 0 mm 4 m/s 736 mmHg 85%

15 Juillet, Mercredi

Heure Température Précipitation Vent Pression Humidité
00:00 +15°C° 0.1 mm 5 m/s 736 mmHg 83%
01:00 +15°C° 0.1 mm 5 m/s 736 mmHg 81%
02:00 +15°C° 0.1 mm 5 m/s 736 mmHg 79%
03:00 +15°C° 0.5 mm 5 m/s 736 mmHg 81%
04:00 +14°C° 0.5 mm 5 m/s 736 mmHg 84%
05:00 +14°C° 0.5 mm 5 m/s 736 mmHg 86%
06:00 +14°C° 0.4 mm 5 m/s 736 mmHg 84%
07:00 +15°C° 0.4 mm 6 m/s 736 mmHg 83%
08:00 +16°C° 0.4 mm 6 m/s 736 mmHg 81%
09:00 +15°C° 0.7 mm 6 m/s 736 mmHg 83%
10:00 +15°C° 0.7 mm 5 m/s 736 mmHg 85%
11:00 +15°C° 0.7 mm 5 m/s 736 mmHg 88%
12:00 +15°C° 1.1 mm 5 m/s 736 mmHg 88%
13:00 +15°C° 1.1 mm 5 m/s 737 mmHg 89%
14:00 +15°C° 1.1 mm 5 m/s 737 mmHg 90%
15:00 +14°C° 0.7 mm 5 m/s 737 mmHg 90%
16:00 +13°C° 0.7 mm 5 m/s 737 mmHg 91%
17:00 +12°C° 0.7 mm 5 m/s 737 mmHg 91%
18:00 +12°C° 0.2 mm 5 m/s 738 mmHg 91%
19:00 +11°C° 0.2 mm 4 m/s 738 mmHg 91%
20:00 +11°C° 0.2 mm 4 m/s 738 mmHg 91%
21:00 +11°C° 0.2 mm 4 m/s 738 mmHg 92%
22:00 +11°C° 0.2 mm 4 m/s 738 mmHg 92%
23:00 +11°C° 0.2 mm 4 m/s 738 mmHg 93%

16 Juillet, Jeudi

Heure Température Précipitation Vent Pression Humidité
00:00 +11°C° 0.1 mm 4 m/s 738 mmHg 92%
01:00 +11°C° 0.1 mm 4 m/s 737 mmHg 92%
02:00 +12°C° 0.1 mm 4 m/s 737 mmHg 91%
03:00 +12°C° 0 mm 4 m/s 737 mmHg 91%
04:00 +12°C° 0 mm 4 m/s 737 mmHg 90%
05:00 +12°C° 0 mm 4 m/s 737 mmHg 90%
06:00 +13°C° 0 mm 4 m/s 737 mmHg 88%
07:00 +13°C° 0 mm 4 m/s 737 mmHg 86%
08:00 +14°C° 0 mm 4 m/s 737 mmHg 85%
09:00 +17°C° 0 mm 4 m/s 737 mmHg 79%
10:00 +18°C° 0 mm 4 m/s 737 mmHg 74%
11:00 +20°C° 0 mm 4 m/s 737 mmHg 69%
12:00 +20°C° 0.1 mm 4 m/s 737 mmHg 70%
13:00 +20°C° 0.1 mm 4 m/s 737 mmHg 71%
14:00 +20°C° 0.1 mm 4 m/s 737 mmHg 72%
15:00 +20°C° 0.1 mm 3 m/s 737 mmHg 73%
16:00 +20°C° 0.1 mm 3 m/s 736 mmHg 75%
17:00 +20°C° 0.1 mm 3 m/s 736 mmHg 76%
18:00 +18°C° 0 mm 2 m/s 736 mmHg 80%
19:00 +17°C° 0 mm 2 m/s 736 mmHg 84%
20:00 +15°C° 0 mm 1 m/s 736 mmHg 88%
21:00 +14°C° 0 mm 1 m/s 736 mmHg 88%
22:00 +14°C° 0 mm 1 m/s 736 mmHg 89%
23:00 +13°C° 0 mm 1 m/s 736 mmHg 90%
Voir plus